Probability
0 0 0 0 0 0 0 0 0 0 0 0 0 0 0 0 0 0 0 0 6 6 10 13 23 26 23 19 16 26 26 26 32 29 23 23 19 19 19 23 19 23 23 26 23 16 13 16 19
0 0 0 0 0 0 0 0 0 0 0 0 0 0 0 0 0 0 0 0 6 6 6 13 23 26 26 23 19 19 23 26 32 35 29 23 19 19 19 19 16 19 23 19 16 23 19 19 19
0 0 0 0 0 0 0 0 0 0 0 0 0 0 0 0 0 0 0 0 6 6 10 19 23 26 26 23 23 23 23 23 26 26 23 26 29 19 23 19 19 19 19 23 23 13 16 19 19
0 0 0 0 0 0 0 0 0 0 0 0 0 0 0 0 0 0 0 0 6 6 10 16 19 26 23 23 23 16 16 16 23 16 16 16 19 23 19 26 26 23 16 19 16 13 13 13 19
0 0 0 0 0 0 0 0 0 0 0 0 0 0 0 0 0 0 0 3 10 10 10 13 19 23 19 19 23 19 19 19 16 16 16 13 19 16 19 16 19 23 16 13 16 13 13 13 13
0 0 0 0 0 0 0 0 0 0 0 0 0 0 0 0 0 0 0 3 10 6 6 13 13 19 23 23 19 19 19 16 16 16 16 16 19 19 13 10 16 16 16 16 16 13 16 13 13
0 0 0 0 0 0 0 0 0 0 0 0 0 0 0 0 0 0 0 3 6 6 6 10 10 6 10 13 16 13 13 19 19 16 16 16 10 16 13 10 10 13 10 10 10 10 13 13 13
0 0 0 0 0 0 0 0 0 0 0 0 0 0 0 0 0 0 0 3 6 3 3 6 6 6 6 6 10 10 10 13 13 10 10 10 10 10 10 13 6 3 3 6 6 6 10 6 6
0 0 0 0 0 0 0 0 0 0 0 0 0 0 0 0 0 0 0 6 3 3 3 3 6 6 6 6 6 6 6 3 3 3 3 3 3 3 0 0 3 3 3 3 3 3 3 0 0
0 0 0 0 0 0 0 0 0 0 0 0 0 0 0 0 0 0 0 6 3 3 3 3 3 3 6 6 6 6 6 3 0 3 0 3 3 3 0 0 3 3 3 3 0 0 0 0 0
0 0 0 0 0 0 0 0 0 0 0 0 0 0 0 0 3 0 0 3 3 3 3 3 3 3 3 3 6 6 6 3 3 3 3 3 3 0 0 0 0 0 0 0 0 0 0 0 0
0 0 0 0 0 0 0 0 0 0 0 0 0 0 0 0 3 3 0 3 3 3 3 3 3 3 3 3 3 3 3 0 3 3 3 3 0 0 0 0 0 0 0 0 0 0 0 0 0
0 0 0 0 0 0 0 0 0 0 0 0 0 0 0 0 0 3 3 3 3 3 3 3 3 3 3 3 3 3 3 0 0 0 0 0 0 0 0 0 0 0 0 0 0 0 0 0 0
0 0 0 0 0 0 0 0 0 0 0 0 0 0 0 0 0 0 0 3 3 3 3 3 3 3 3 3 3 3 3 0 0 0 0 0 0 0 0 0 0 0 0 0 0 0 0 0 0
0 0 0 0 0 0 0 0 0 0 0 0 0 0 0 0 0 0 0 0 3 3 3 3 3 3 3 3 3 3 0 0 0 0 0 0 0 0 0 0 0 0 0 0 0 0 0 0 0
0 0 0 0 0 0 0 0 0 0 0 0 0 0 0 0 0 0 0 0 0 3 3 3 3 3 3 3 3 3 0 0 0 0 0 0 0 0 0 0 0 0 0 0 0 0 0 0 0
0 0 0 0 0 0 0 0 0 0 0 0 0 0 0 0 0 0 0 0 3 3 3 3 3 3 3 3 3 0 0 0 0 0 0 0 0 0 0 0 0 0 0 0 0 0 0 0 0
0 0 0 0 0 0 0 0 0 0 0 0 0 0 0 0 0 0 0 0 0 3 3 3 3 0 0 0 0 0 0 0 0 0 0 0 0 0 0 0 0 0 0 0 0 0 0 0 0
0 0 0 0 0 0 0 0 0 0 0 0 0 0 0 0 0 0 0 0 0 0 0 0 3 0 0 0 0 0 0 0 0 0 0 0 0 0 0 0 0 0 0 0 0 0 0 0 0
0 0 0 0 0 0 0 0 0 0 0 0 0 0 0 0 0 0 0 0 0 0 0 0 0 0 0 0 0 0 0 0 0 0 0 0 0 0 0 0 0 0 0 0 0 0 0 0 0
0 0 0 0 0 0 0 0 0 0 0 0 0 0 0 0 0 0 0 0 0 0 0 0 0 0 3 0 0 0 0 0 0 0 0 0 0 0 0 0 0 0 0 0 0 0 0 0 0
0 0 0 0 0 0 0 0 0 0 0 0 0 0 0 0 0 0 0 0 0 0 0 0 0 0 0 0 0 0 0 0 0 0 0 0 0 0 0 0 0 0 0 0 0 0 0 0 0
0 0 0 0 0 0 0 0 0 0 0 0 0 0 0 0 0 0 0 0 0 0 0 0 0 0 0 0 0 0 0 0 0 0 0 0 0 0 0 0 0 0 0 0 0 0 0 0 0
0 0 0 0 0 0 0 0 0 0 0 0 0 0 0 0 0 0 0 0 0 0 0 0 0 0 0 0 0 0 0 0 0 0 0 0 0 0 0 0 0 0 0 0 0 0 0 0 0
0 0 0 0 0 0 0 0 0 0 0 0 0 0 0 0 0 0 0 0 0 0 0 0 0 0 0 0 0 0 0 0 0 0 0 0 0 0 0 0 0 0 0 0 0 0 0 0 0
0 0 0 0 0 0 0 0 0 0 0 0 0 0 0 0 0 0 0 0 0 0 0 0 0 0 0 0 0 0 0 0 0 0 0 0 0 0 0 0 0 0 0 0 0 0 0 0 0
0 0 0 0 0 0 0 0 0 0 0 0 0 0 0 0 0 0 0 0 0 0 0 0 0 0 0 0 0 0 0 0 0 0 0 0 0 0 0 0 0 0 0 0 0 0 0 0 0
0 0 0 0 0 0 0 0 0 0 0 0 0 0 0 0 0 0 0 0 0 0 0 0 0 0 0 0 0 0 0 0 0 0 0 0 0 0 0 0 0 0 0 0 0 0 0 0 0
0 0 0 0 0 0 0 0 0 0 0 0 0 0 0 0 0 0 0 0 0 0 0 0 0 0 0 0 0 0 0 0 0 0 0 0 0 0 0 0 0 0 0 0 0 0 0 0 0
0 0 0 0 0 0 0 0 0 0 0 0 0 0 0 0 0 0 0 0 0 0 0 0 0 0 0 0 0 0 0 0 0 0 0 0 0 0 0 0 0 0 0 0 0 0 0 0 0
Height
5784 5786 5787 5789 5791 5792 5794 5797 5797 5798 5800 5801 5802 5804 5805 5807 5809 5812 5812 5812 5814 5815 5817 5818 5819 5821 5822 5824 5825 5826 5828 5829 5831 5832 5833 5834 5836 5837 5838 5840 5841 5842 5844 5845 5846 5847 5848 5849 5850
5780 5782 5783 5784 5785 5787 5791 5792 5793 5795 5796 5797 5798 5800 5801 5802 5804 5806 5807 5809 5810 5812 5813 5815 5816 5818 5819 5821 5822 5823 5825 5826 5828 5830 5831 5832 5833 5835 5836 5838 5839 5840 5842 5843 5844 5846 5847 5848 5849
5775 5777 5779 5780 5781 5783 5786 5787 5789 5790 5791 5793 5794 5796 5797 5799 5800 5802 5803 5805 5806 5808 5810 5811 5813 5814 5816 5818 5819 5821 5822 5824 5825 5827 5828 5830 5831 5832 5834 5835 5836 5838 5839 5841 5842 5844 5845 5846 5847
5771 5772 5774 5776 5777 5780 5782 5783 5784 5785 5786 5788 5789 5791 5793 5795 5796 5798 5799 5801 5802 5804 5806 5807 5809 5811 5812 5814 5816 5817 5819 5821 5822 5824 5825 5827 5828 5830 5831 5833 5834 5836 5837 5838 5840 5841 5843 5844 5845
5765 5767 5768 5770 5773 5776 5778 5779 5779 5780 5782 5784 5785 5786 5787 5790 5791 5793 5795 5796 5798 5800 5802 5803 5805 5807 5808 5810 5812 5814 5815 5817 5819 5821 5822 5823 5825 5827 5828 5830 5831 5833 5834 5836 5837 5838 5840 5841 5842
5761 5762 5763 5765 5768 5771 5773 5774 5774 5775 5777 5778 5779 5781 5783 5784 5786 5788 5790 5791 5793 5795 5797 5799 5801 5802 5804 5806 5808 5810 5812 5813 5815 5817 5818 5820 5822 5823 5825 5826 5828 5829 5831 5833 5834 5835 5837 5838 5839
5756 5757 5758 5760 5762 5765 5767 5768 5769 5770 5772 5773 5774 5776 5777 5779 5781 5782 5784 5786 5788 5790 5792 5794 5796 5798 5800 5802 5803 5805 5807 5809 5811 5813 5814 5816 5818 5820 5821 5823 5824 5826 5827 5829 5830 5832 5833 5835 5836
5749 5751 5752 5754 5756 5759 5761 5762 5763 5764 5766 5767 5768 5770 5771 5774 5775 5776 5778 5780 5782 5785 5787 5789 5791 5793 5795 5797 5799 5801 5803 5805 5807 5808 5810 5812 5814 5815 5817 5819 5820 5822 5823 5825 5827 5828 5829 5831 5832
5742 5745 5746 5749 5750 5753 5755 5756 5756 5757 5759 5760 5761 5763 5765 5768 5769 5770 5772 5774 5777 5779 5781 5783 5785 5787 5789 5791 5793 5796 5798 5800 5802 5804 5806 5807 5809 5811 5813 5814 5816 5817 5819 5821 5822 5824 5825 5827 5828
5736 5738 5741 5743 5744 5745 5747 5748 5749 5751 5752 5753 5755 5756 5758 5760 5762 5764 5766 5768 5770 5772 5775 5777 5779 5781 5783 5786 5788 5790 5792 5794 5796 5798 5800 5802 5804 5806 5808 5809 5811 5813 5814 5816 5817 5819 5820 5822 5823
5729 5732 5734 5735 5736 5737 5739 5741 5742 5743 5745 5746 5747 5749 5750 5752 5754 5756 5758 5761 5763 5765 5768 5770 5773 5775 5777 5779 5782 5784 5787 5789 5791 5793 5794 5796 5798 5800 5802 5804 5806 5807 5809 5811 5813 5814 5815 5817 5818
5722 5724 5725 5727 5728 5729 5731 5733 5734 5736 5737 5737 5739 5740 5742 5744 5746 5748 5750 5753 5756 5758 5761 5763 5765 5768 5770 5773 5775 5778 5780 5782 5784 5786 5788 5790 5792 5794 5796 5798 5800 5801 5803 5805 5807 5808 5810 5811 5812
5714 5716 5717 5719 5720 5721 5722 5724 5725 5727 5728 5728 5730 5731 5733 5735 5737 5740 5742 5745 5747 5750 5752 5755 5757 5760 5762 5765 5768 5770 5773 5775 5777 5779 5781 5783 5786 5787 5790 5792 5793 5795 5797 5799 5800 5802 5803 5805 5806
5707 5707 5708 5710 5711 5712 5713 5714 5716 5718 5718 5719 5721 5722 5724 5726 5728 5730 5733 5736 5739 5741 5744 5747 5749 5752 5754 5757 5760 5762 5765 5768 5770 5772 5774 5776 5778 5780 5782 5784 5786 5788 5790 5792 5794 5795 5797 5798 5800
5697 5698 5699 5701 5702 5703 5703 5704 5706 5708 5708 5710 5711 5713 5714 5716 5718 5721 5723 5726 5729 5732 5735 5737 5740 5743 5746 5748 5751 5754 5757 5760 5762 5764 5766 5768 5771 5773 5775 5777 5779 5781 5782 5784 5786 5788 5789 5791 5792
5688 5689 5690 5693 5693 5693 5694 5695 5698 5697 5698 5700 5702 5703 5705 5706 5708 5711 5714 5716 5719 5722 5725 5728 5731 5734 5736 5739 5742 5745 5748 5751 5753 5756 5758 5760 5762 5764 5766 5768 5770 5772 5774 5776 5778 5780 5781 5783 5784
5678 5679 5681 5683 5683 5683 5683 5685 5687 5687 5688 5690 5691 5693 5694 5696 5698 5701 5704 5706 5709 5712 5715 5718 5721 5724 5726 5729 5732 5735 5738 5741 5744 5746 5749 5751 5753 5755 5757 5760 5761 5764 5766 5767 5769 5771 5773 5774 5776
5670 5671 5672 5672 5672 5672 5673 5675 5676 5677 5678 5679 5681 5682 5684 5686 5689 5691 5693 5696 5698 5701 5704 5707 5710 5713 5716 5719 5722 5725 5728 5731 5733 5736 5739 5741 5744 5746 5748 5750 5752 5754 5756 5758 5760 5762 5763 5765 5766
5661 5661 5662 5663 5662 5662 5663 5664 5665 5666 5667 5669 5670 5672 5674 5675 5678 5680 5682 5684 5687 5690 5692 5696 5699 5702 5705 5708 5711 5714 5717 5720 5723 5725 5728 5731 5733 5735 5738 5740 5742 5744 5746 5748 5750 5752 5753 5755 5756
5653 5652 5653 5653 5652 5652 5652 5653 5655 5655 5657 5658 5660 5661 5662 5664 5666 5668 5670 5673 5675 5678 5681 5684 5687 5690 5693 5696 5699 5702 5705 5708 5711 5714 5717 5719 5722 5724 5727 5729 5731 5733 5735 5737 5739 5741 5743 5744 5746
5644 5644 5644 5643 5642 5641 5642 5643 5645 5645 5646 5647 5648 5650 5651 5653 5654 5656 5658 5661 5663 5666 5669 5672 5675 5678 5681 5684 5687 5690 5693 5696 5699 5702 5705 5708 5710 5713 5715 5717 5720 5722 5724 5726 5728 5730 5731 5733 5735
5636 5636 5635 5633 5632 5632 5632 5631 5635 5636 5636 5637 5638 5639 5641 5642 5644 5646 5647 5650 5651 5654 5656 5659 5662 5665 5668 5671 5674 5677 5681 5684 5687 5690 5692 5695 5698 5700 5703 5705 5708 5710 5712 5714 5716 5717 5719 5721 5722
5627 5626 5625 5624 5622 5622 5623 5622 5626 5626 5627 5627 5628 5629 5630 5631 5632 5634 5636 5638 5640 5642 5644 5646 5649 5651 5654 5658 5661 5664 5667 5670 5673 5676 5679 5682 5685 5687 5689 5692 5694 5696 5699 5701 5702 5704 5706 5708 5710
5617 5617 5616 5614 5613 5613 5615 5614 5615 5617 5618 5618 5618 5619 5620 5621 5622 5623 5625 5626 5628 5630 5632 5634 5636 5638 5641 5644 5647 5650 5654 5657 5660 5663 5666 5669 5671 5673 5676 5678 5680 5682 5685 5687 5689 5691 5692 5694 5696
5609 5608 5606 5604 5603 5604 5606 5605 5607 5607 5608 5608 5609 5609 5609 5610 5611 5612 5613 5614 5616 5618 5620 5621 5623 5625 5627 5630 5633 5636 5639 5642 5646 5649 5652 5654 5657 5659 5662 5664 5666 5668 5670 5672 5674 5676 5678 5680 5682
5600 5599 5599 5597 5595 5595 5596 5596 5598 5599 5598 5598 5599 5599 5599 5599 5600 5600 5601 5603 5604 5606 5607 5609 5610 5612 5614 5616 5618 5621 5624 5627 5631 5634 5637 5639 5642 5644 5646 5648 5651 5653 5654 5657 5659 5661 5663 5665 5667
5592 5590 5590 5589 5587 5586 5586 5587 5588 5589 5589 5588 5588 5588 5588 5588 5589 5589 5590 5591 5592 5593 5595 5596 5597 5599 5601 5602 5604 5607 5609 5612 5615 5618 5621 5624 5626 5628 5630 5632 5635 5637 5639 5641 5643 5645 5647 5649 5651
5584 5583 5581 5579 5577 5576 5577 5578 5578 5578 5579 5578 5578 5578 5577 5577 5577 5577 5578 5578 5579 5580 5581 5582 5584 5585 5587 5588 5590 5591 5594 5596 5599 5601 5605 5607 5609 5612 5614 5616 5618 5620 5622 5624 5627 5629 5631 5633 5635
5576 5575 5572 5571 5570 5569 5568 5571 5568 5568 5568 5567 5567 5566 5566 5566 5565 5565 5565 5565 5565 5566 5567 5568 5569 5571 5572 5573 5574 5576 5578 5580 5582 5585 5588 5590 5593 5595 5597 5599 5601 5603 5605 5607 5609 5612 5614 5616 5618
5566 5565 5564 5563 5561 5560 5559 5562 5559 5558 5557 5556 5556 5555 5554 5553 5553 5553 5552 5552 5552 5553 5553 5554 5555 5556 5557 5558 5559 5560 5562 5564 5566 5568 5571 5573 5576 5578 5580 5582 5584 5586 5588 5590 5592 5594 5596 5598 5600
Wind_Speed
25 25 25 25 25 25 23 21 21 21 21 22 22 23 24 24 24 23 22 21 21 21 21 20 19 19 19 19 18 18 18 17 17 16 16 16 15 15 14 14 13 12 11 11 10 10 10 9 9
25 26 26 27 27 26 23 22 22 22 22 23 23 23 24 24 25 24 23 22 22 22 22 22 21 20 20 20 19 19 19 18 18 16 16 16 16 16 15 15 15 14 13 12 12 11 11 11 10
26 27 27 28 28 25 23 24 23 23 24 24 24 25 25 25 25 24 24 23 23 23 23 22 22 22 21 21 20 20 20 19 19 18 18 17 17 17 17 16 16 15 14 14 13 13 12 12 11
26 27 28 29 28 25 24 24 25 26 26 25 25 26 26 26 25 25 25 25 25 24 24 23 23 23 22 22 21 21 21 20 20 19 19 19 18 18 19 18 17 16 16 15 15 14 13 13 13
26 27 29 29 27 26 26 26 26 27 27 26 26 26 26 27 26 26 26 26 26 26 25 24 24 24 24 23 22 22 22 21 21 20 20 20 19 19 19 19 18 18 17 17 16 16 16 15 15
27 28 29 28 27 27 28 28 28 29 28 28 28 28 28 28 27 27 27 27 27 26 26 26 25 25 25 24 24 24 23 22 22 22 22 21 21 20 20 21 20 20 19 19 18 18 18 17 17
28 29 29 28 28 28 28 28 29 29 29 29 30 29 29 28 28 29 29 28 28 28 27 27 26 26 26 26 26 25 25 24 23 23 23 22 22 22 22 22 22 21 21 20 20 20 20 19 19
29 30 29 29 29 29 29 29 30 31 30 31 31 31 31 30 30 30 31 31 30 29 28 28 28 27 27 27 27 27 26 25 25 24 23 24 24 24 24 23 23 23 22 22 22 22 22 22 21
31 32 30 30 31 31 30 30 31 31 32 32 33 33 33 32 32 32 32 32 32 31 30 30 29 29 29 29 29 28 28 27 27 26 25 25 25 25 25 25 24 24 23 23 23 23 24 24 23
33 33 31 32 32 32 32 33 33 33 32 33 34 34 34 34 34 34 34 34 34 33 32 32 31 31 31 31 30 30 29 29 29 28 28 27 27 27 26 26 26 26 25 24 24 24 25 25 25
34 33 32 33 33 34 34 35 35 35 35 35 35 36 36 36 36 36 36 36 36 36 35 34 34 34 33 33 32 31 31 31 31 31 29 29 29 29 28 28 28 28 27 27 26 26 26 26 27
34 34 35 35 35 36 36 36 37 36 36 37 37 37 37 38 38 37 37 37 37 37 37 36 36 36 36 35 35 33 33 33 32 32 32 31 31 31 30 30 30 29 29 29 29 28 28 27 27
34 35 36 37 37 38 38 38 38 38 39 39 39 39 39 39 39 39 39 39 39 39 39 39 38 38 38 37 36 36 35 35 34 34 33 33 33 32 32 32 32 31 31 30 31 31 30 30 29
35 36 37 37 38 39 39 39 39 39 40 40 40 40 40 40 40 41 40 40 40 40 40 41 41 40 40 39 38 38 37 37 37 36 36 35 35 34 34 34 34 33 33 33 32 32 33 32 31
36 37 38 38 38 39 40 40 39 39 40 40 40 40 41 41 41 41 41 41 41 42 42 41 41 41 41 41 41 40 39 39 38 38 38 37 36 37 36 36 35 36 35 35 34 33 34 33 33
35 37 38 37 38 39 41 40 39 39 41 41 41 41 41 42 42 42 42 43 43 43 43 42 42 42 42 42 42 42 42 41 40 40 40 39 39 38 39 38 38 37 37 37 37 36 36 35 35
34 36 37 37 38 39 40 40 39 40 41 41 41 42 42 42 43 43 43 44 44 44 44 44 45 45 44 44 44 44 44 44 43 43 42 42 41 41 40 41 40 40 39 39 39 38 38 37 37
33 34 36 37 38 39 40 40 40 41 41 41 41 42 43 43 43 44 44 44 44 45 46 46 46 46 46 46 46 46 46 46 45 45 44 44 43 43 43 43 43 42 42 41 41 41 40 40 40
34 35 36 37 38 40 40 40 41 41 42 42 42 43 43 44 45 45 45 45 45 45 45 46 47 47 47 47 47 47 47 48 47 47 47 46 45 45 45 45 45 44 44 43 43 43 42 42 42
33 34 35 37 38 39 40 40 41 41 41 42 42 43 43 44 45 45 45 46 46 46 46 46 46 47 47 48 48 49 49 49 48 48 48 48 47 47 47 47 46 46 46 46 45 45 45 45 44
32 34 35 37 39 40 40 39 39 40 40 41 42 42 43 43 44 44 45 46 46 47 47 48 48 48 48 49 49 49 49 49 49 49 49 49 48 48 48 48 48 48 48 48 48 48 48 48 47
33 33 35 35 37 38 38 40 37 38 39 39 40 40 41 41 43 44 44 45 45 47 48 49 50 50 50 50 50 50 50 50 50 50 50 50 50 50 50 50 50 50 50 50 50 51 51 50 49
34 33 34 34 35 36 37 39 37 36 37 37 38 39 39 40 41 43 44 45 45 46 47 49 50 50 51 51 51 51 51 52 52 52 52 52 51 52 52 52 52 52 52 52 52 53 52 52 52
33 33 33 33 34 36 35 36 36 35 35 36 37 38 39 40 41 42 44 45 46 46 47 48 49 50 51 52 52 53 53 53 53 53 53 53 53 53 53 53 53 54 54 55 55 54 54 54 54
32 31 33 34 35 36 35 36 36 35 34 35 36 36 38 39 41 42 44 45 46 47 47 47 48 49 51 52 53 54 54 55 55 55 55 55 56 56 56 56 56 56 56 56 56 56 56 56 56
31 31 32 34 35 35 35 36 36 35 35 36 36 37 38 39 40 41 43 44 46 47 48 48 49 50 51 52 54 55 56 56 57 57 57 57 58 58 58 58 58 58 58 58 58 58 58 58 58
31 32 32 34 35 36 36 37 37 36 36 37 38 38 39 40 41 42 43 44 45 47 49 50 50 51 52 53 54 55 56 57 58 58 58 59 59 60 61 61 61 60 60 60 60 60 60 60 60
31 31 32 33 35 36 37 37 38 37 38 39 39 39 40 41 42 43 44 45 46 47 48 50 51 51 52 54 54 55 56 57 58 59 59 59 60 61 62 63 63 63 63 63 63 63 63 62 62
31 31 32 33 34 36 37 36 37 38 38 39 39 40 41 41 42 43 43 45 46 47 48 49 50 51 52 53 54 55 56 57 58 59 60 60 61 61 62 62 62 62 63 63 63 63 63 64 63
31 31 31 32 33 34 35 36 35 36 36 37 38 39 39 40 40 41 42 43 44 45 46 47 49 50 51 52 53 54 55 57 58 58 59 60 60 61 62 63 62 63 63 63 63 63 64 64 64
Wind_Direction
242 241 242 241 242 245 246 247 247 248 249 248 247 247 246 246 246 247 246 244 244 242 241 242 241 241 240 239 237 235 232 230 229 228 228 225 224 224 223 223 222 221 222 223 223 223 220 221 223
244 243 243 243 245 247 247 249 251 251 252 252 249 248 246 246 246 246 245 244 244 244 243 242 243 242 242 241 239 238 235 234 233 232 231 230 227 225 225 225 223 223 225 226 226 227 226 225 226
246 244 245 245 247 248 249 251 253 253 253 253 250 247 247 246 244 245 246 244 244 244 244 243 243 242 243 241 240 238 237 236 235 233 233 234 231 228 227 228 226 226 227 228 229 229 229 230 231
247 247 247 247 248 249 249 252 253 253 253 253 252 249 248 246 244 244 244 244 244 244 244 244 242 242 242 241 239 236 236 235 235 235 236 236 236 235 234 233 232 231 231 232 231 230 231 234 235
248 249 250 250 251 249 249 251 254 254 253 253 252 250 250 247 244 243 243 244 244 244 243 243 242 241 241 240 238 236 236 235 235 235 236 238 239 239 239 238 239 237 236 236 235 235 236 238 240
249 249 250 252 252 250 250 250 252 254 254 253 253 251 250 249 247 245 243 244 244 244 243 243 242 241 240 239 238 238 237 236 237 237 237 239 240 241 243 243 242 242 241 241 241 240 241 242 244
250 251 251 252 252 251 251 252 252 254 254 253 252 251 249 248 248 247 245 244 244 244 244 243 243 242 241 239 239 239 238 237 238 239 240 241 242 243 243 245 243 243 244 245 245 245 245 246 247
252 252 252 252 252 252 252 253 254 254 254 253 252 250 249 248 248 248 247 246 245 244 244 244 244 243 241 240 240 240 239 239 240 240 242 242 243 243 244 245 245 244 245 247 247 247 248 249 249
253 254 253 253 253 254 254 254 254 254 254 252 252 252 251 249 249 249 249 247 246 245 244 244 244 244 243 242 242 241 241 242 242 242 243 244 245 246 245 245 246 246 247 248 248 249 250 250 251
254 255 255 255 255 256 255 254 255 254 254 253 253 253 252 250 249 249 248 248 247 246 245 244 244 244 244 244 243 243 243 244 244 244 245 245 246 247 246 246 246 247 248 249 250 251 251 252 253
255 256 256 255 255 256 256 255 256 255 256 255 254 252 252 250 249 248 248 247 247 247 246 246 245 244 244 244 244 244 244 245 245 246 246 247 246 246 247 247 247 248 249 250 251 252 253 253 254
256 255 255 255 256 257 257 257 257 256 256 256 255 253 252 250 249 248 247 247 247 247 247 247 247 246 245 245 245 245 245 246 246 246 247 247 247 247 247 248 248 249 250 251 252 253 254 254 255
257 256 256 256 257 258 258 258 258 258 257 256 256 255 254 252 251 249 248 247 247 247 248 248 248 247 246 246 245 245 245 246 246 247 247 248 249 249 249 249 249 250 251 252 253 253 254 255 256
259 258 257 258 259 259 260 259 258 257 257 256 256 256 255 254 252 250 249 248 247 247 248 248 248 248 247 246 246 246 246 247 247 248 248 249 249 250 251 250 250 252 253 255 255 255 255 256 257
260 260 259 259 260 261 261 260 259 258 257 256 256 256 256 255 253 251 250 249 248 247 247 248 247 247 247 247 247 247 247 247 248 249 251 251 250 250 251 252 252 253 254 256 256 257 257 257 258
262 261 261 261 262 262 261 260 259 258 257 256 256 256 256 255 253 251 251 250 249 248 248 248 247 247 247 247 247 247 248 248 249 249 251 252 252 252 252 253 254 254 255 256 257 258 258 258 259
264 264 264 263 263 263 262 261 259 259 258 257 256 256 255 255 253 252 251 251 250 249 248 248 248 248 248 248 248 248 249 249 250 250 251 252 253 253 253 254 256 256 256 257 257 257 258 259 260
267 266 265 265 264 264 263 263 261 260 259 258 257 256 255 254 254 254 252 251 250 250 249 249 249 248 248 248 248 248 249 250 250 251 251 252 253 253 254 255 256 256 257 257 257 257 258 259 260
268 268 268 268 267 266 264 263 262 261 259 259 258 257 256 254 254 253 252 251 250 250 250 250 249 249 249 248 249 248 249 250 250 250 251 251 252 254 254 255 256 257 257 258 258 258 258 259 259
269 269 270 269 268 267 266 263 262 261 260 260 260 259 257 256 255 253 253 252 252 251 250 250 250 249 249 249 249 249 249 249 250 250 251 252 252 254 254 255 256 256 257 258 258 258 259 259 260
271 272 272 272 270 268 267 265 263 262 261 261 260 260 258 257 255 254 253 252 252 251 251 251 251 250 250 249 249 249 250 250 250 251 252 253 253 254 255 255 255 256 257 258 258 258 259 259 260
272 273 274 274 272 270 268 267 263 263 262 261 260 260 259 258 257 255 254 253 253 252 251 251 251 250 250 250 250 250 250 250 250 251 252 253 253 254 255 256 256 257 258 259 259 259 259 260 260
275 275 275 274 273 270 268 268 266 265 264 263 262 261 260 259 259 256 254 254 254 254 253 252 251 251 251 251 250 250 250 251 251 251 252 253 254 254 255 256 257 257 258 258 259 259 260 260 260
277 276 274 273 272 270 269 269 268 266 266 264 264 263 262 261 259 257 255 255 255 255 254 254 253 252 252 251 251 251 251 251 251 252 252 253 254 255 255 257 258 258 258 259 259 259 259 260 260
277 277 276 274 273 272 271 270 270 269 268 267 265 265 264 263 262 260 258 256 256 255 255 255 255 254 253 252 252 251 251 251 252 253 253 254 254 255 256 257 258 258 259 259 259 259 259 259 260
279 277 276 276 276 276 274 272 271 270 270 269 268 267 266 266 264 262 261 259 258 256 255 255 256 255 255 254 254 253 253 253 253 253 254 255 255 255 257 257 258 258 259 259 259 259 259 260 260
279 278 277 276 276 275 275 275 274 272 271 270 269 268 268 267 266 264 262 261 260 259 257 257 257 257 257 256 256 255 255 254 254 254 254 255 256 256 257 257 258 258 259 259 259 259 260 260 260
278 278 277 275 275 274 275 275 276 275 274 273 272 271 270 269 267 266 264 263 261 260 259 258 258 258 258 258 257 257 257 256 256 256 256 256 257 258 258 258 259 259 259 259 259 260 260 261 261
278 277 276 275 275 275 276 276 276 277 276 275 274 273 272 271 269 268 266 265 263 262 261 260 259 259 258 258 258 258 257 257 257 257 257 257 258 258 259 259 259 259 259 260 260 260 261 261 262
279 278 277 276 276 275 275 275 276 277 277 276 275 273 272 271 270 269 267 266 265 264 263 261 261 260 260 260 260 259 259 258 258 258 258 258 258 259 259 259 259 259 260 260 260 261 261 261 262